Voltar ao catálogo

COSMOS 1275 DEB

AtivoPO
NORAD 42104·DEBRIS·🇷🇺 Russia

Lançado Jun 4, 1981 de Plesetsk Cosmodrome

Loading…

Próximas Passagens (próximas 24 horas)

TLE

AtualizadoSource: Space-Track

Época: Sep 14, 2026, 00:22 UTC

1 42104U 81053PQ  26257.01593004  .00000366  00000-0  32373-3 0  9998
2 42104  82.8810   4.9482 0042343 151.3135 209.0368 13.82026864646343

Acompanhe COSMOS 1275 DEB em tempo real com AllMySat

Download on the App Store